CHANG'E-5 (47097 NORAD) Tracking and Keplerian Element Data

This shows tracking and keplerian element data for the satellite.

Feedback or suggestion? Click here.




ElementValue
Catalog47097
NameCHANG'E-5
Epoch Orbit4
Epoch Day351.73216666
Epoch Year2020
RAAN35.4725
Inclination43.3438
Eccentricity0.9662385
Argument of Perigee24.7881
Mean Anonmoly359.9966
Mean Motion0.10575492
Decay Rate-0.00107573
L11 47097U 20087A 20351.73216666 -.00107573 87118-3 10000-4 0 9999
L22 47097 43.3438 35.4725 9662385 24.7881 359.9966 0.10575492 43

Live tracking and technical data element details for CHANG'E-5 (NORAD 47097). CHANG'E-5 can be tracked NOW for your location showing map with azimuth and elevation plus other details from your city location.

Track the satellite on the map from your city or location and see movement details for azimuth, elevation, latitude, longitude, range, height, and movement on the map or in text.







IsCatalogInMostPopularTable: catalog: 47097, numindb: 32
Update: records affected: 1



GetName: 47097 CHANG'E-5

Hit Count: updated at: Tue, 19 Jan 2021 02:12:43 GMT